Orbital Elements at Epoch 2459000.5 (2020-May-31.0) TDB
Reference: JPL 22 (heliocentric ecliptic J2000)
Element | Value | Uncertainty (1-sigma) | Units |
e | .200373423631717 | 4.2167e-08 | |
a | 3.035514681667606 | 1.6019e-08 | au |
q | 2.427278212417526 | 1.2979e-07 | au |
i | 5.937930389824857 | 6.0836e-06 | deg |
node | 37.04150252886662 | 3.7216e-05 | deg |
peri | 41.54298405447359 | 4.0077e-05 | deg |
M | 16.86761822198345 | 1.2616e-05 | deg |
tp | 2458909.989660183491 (2020-Mar-01.48966018) | 6.767e-05 | TDB |
period | 1931.732263863842 5.29 | 1.5291e-05 4.186e-08 | d yr |
n | .1863612296250256 | 1.4752e-09 | deg/d |
Q | 3.643751150917685 | 1.9229e-08 | au |
|
| | Orbit Determination Parameters
Additional Information
|